Retour au catalogue

STARLINK-34904

ActifCommunicationsSSO
NORAD 65274·PAYLOAD·🇺🇸 United States

Lancé Aug 22, 2025 depuis Vandenberg Space Force Base

Loading…

Prochains Passages (prochaines 24 heures)

TLE

FraisSource: CelesTrak SupGP

Époque: Sep 15, 2026, 02:35 UTC

1 65274C 25184B   26258.10812500  .00043367  00000+0  13454-2 0  2583
2 65274  97.2835 306.1007 0001120  95.6672 300.1102 15.33437280    10

Suivez STARLINK-34904 en temps réel avec AllMySat

Download on the App Store